Rbgn^[z[y[W
メイン
   新天体発見情報
     Comet C/2025 M1 (PANSTARRS)
投稿するにはまず登録を

スレッド表示 | 新しいものから 前のトピック | 次のトピック | 下へ
投稿者 スレッド
佐藤裕久
投稿日時: 2025-7-1 23:13
モデレータ
登録日: 2005-6-12
居住地: 日本
投稿: 2669
オンライン
Comet C/2025 M1 (PANSTARRS)

R. Weryk (西オンタリオ大学,物理および天文学科)の通報によると、6月21日、HaleakalaのPan-
STARRS2 1.8-m Ritchey-Chretien反射望遠鏡で得た画像から彗星を発見した。
3枚45-秒のw-バンドサーベイ画像では、1".1-1".2のシーイングで、2".2(半値全幅:FWHM)の集光
した頭部が見え、p.a. 280°に約8"の尾がある。
WerykとR. Wainscoatによると、6月24.4日UT、Maunakeaにある3.6-m Canada-France-Hawaii望遠
鏡で得た3枚の60-秒gri-バンドフォローアップ露出から、最も良いシーイング(0".7)で、非常に
集光した約10"のコマとp.a. 265-310°にわたって約6"の広い尾がある。
S. Deen (Simi Valley, カリフォルニア州, 米国)の報告によると、6月21.97日〜21.99日UT、チリ 
Rio Hurtadoの0.43-m 反射望遠鏡の観測から、この天体は明らかに彗星であり、0".8のシーイング
で、4".5(FWHM)の拡散したコマがあり、V光度は20.6等と測定した。Deenはその後、この彗星の観
測データを公開アーカイブから確認し測定した。
Deenは、1.5-m Mt Lemmon反射望遠鏡で得た発見前の画像も多数確認した。これらの画像は、一般的
に彗星のような特徴が見られるものの、解像度が低く、明るさが不足しているため、具体的な数値
を算出することできなかった。

彗星機能の報告は次のとおり、

OC   Date        Reporter            Coma    Tail   PA   Comet     Date
                                                        (T/P)   Reported
V00  2021-05-18  D. Rankin           4".8                 T   2025-06-22.15
W84  2023-04-20  S. Deen             3"                   P   2025-06-22.12
T14  2023-04-24  S. Deen             5".5                 T   2025-06-22.12
W84  2023-05-14  S. Deen             2".5                 T   2025-06-22.12
T14  2023-05-15  S. Deen             6"                   T   2025-06-22.13
W84  2023-06-18  S. Deen             7".5                 T   2025-06-22.13
W84  2023-06-19  S. Deen             5"                   T   2025-06-22.13
W84  2023-06-24  S. Deen             4"                   T   2025-06-22.13
W84  2024-05-17  S. Deen             5".5                 T   2025-06-22.13
F52  2025-06-21  R. Weryk            1".1      8"  280    T   2025-06-21.75
X09  2025-06-21  S. Deen             8"                   T   2025-06-21.99
T14  2025-06-24  R. Weryk           10"        6"  265    T   2025-06-24.49
Q62  2025-06-24  H. Sato             8"                   T   2025-06-26.04

発見位置は次のとおり(PCCP P22aZna)、

     2025 UT             R.A. (2000) Decl.       Mag.
     June 21.34360   16 12 04.95   -20 33 14.4   20.9
          21.35889   16 12 04.71   -20 33 15.4   20.9
          21.36655   16 12 04.53   -20 33 15.8   21.3

Deenが確認したMt Lemmonの発見前観測、

     2025 UT             R.A. (2000) Decl.
     Apr. 10.46865   16 31 13.70   -19 32 37.4
          10.47333   16 31 13.64   -19 32 36.2
          10.47802   16 31 13.59   -19 32 37.5
          10.48271   16 31 13.53   -19 32 38.2
          22.47232   16 28 50.43   -19 43 34.4
          22.47805   16 28 50.36   -19 43 35.0
          22.48377   16 28 50.31   -19 43 35.6
          22.48950   16 28 50.19   -19 43 34.9
     May  19.37177   16 21 43.49   -20 06 13.0
          19.37225   16 21 43.49   -20 06 12.8
          19.37715   16 21 43.41   -20 06 13.0
          19.37763   16 21 43.43   -20 06 13.7
          19.38251   16 21 43.28   -20 06 13.4
          19.38299   16 21 43.25   -20 06 13.3
          19.38835   16 21 43.18   -20 06 13.0
     June  6.28876   16 16 22.97   -20 20 42.6
           6.29359   16 16 22.93   -20 20 42.3
          19.28821   16 12 38.65   -20 31 28.8
          19.29398   16 12 38.52   -20 31 29.9
          19.29974   16 12 38.46   -20 31 29.7
          19.30554   16 12 38.39   -20 31 30.2

MPCの楕円軌道要素は次のとおり、

Orbital elements:
    C/2025 M1 (PANSTARRS)                                                       
Epoch 2025 May 5.0 TT = JDT 2460800.5                                           
T 2029 Aug. 3.30347 TT                                  Pike                    
q  10.8284688            (2000.0)            P               Q                  
z  +0.0001610      Peri.  230.43199     +0.05156888     +0.55034708             
 +/-0.0000140      Node    66.95858     -0.37753672     +0.78327034             
e   0.9982570      Incl.   64.90256     -0.92455756     -0.28914645             
From 41 observations 2021 May 18-2025 June 26, mean residual 0".4.              
                                                                                
Ephemeris:
Date    TT    R. A. (2000) Decl.     Delta      r    Elong.  Phase   m1 
2025 05 28    16 19 09.6 -20 13 10  12.3474 13.3605   178.8     0.1  19.6
...
2025 06 12    16 14 42.5 -20 25 22  12.3361 13.3172   164.5     1.2  19.6
...
2025 06 20    16 12 26.9 -20 32 05  12.3572 13.2942   156.3     1.8  19.6
...
2025 06 26    16 10 50.9 -20 37 18  12.3848 13.2770   150.3     2.2  19.6
2025 06 27    16 10 35.5 -20 38 11  12.3903 13.2742   149.3     2.2  19.6
2025 06 28    16 10 20.2 -20 39 05  12.3961 13.2713   148.3     2.3  19.6
...
2025 07 04    16 08 52.9 -20 44 35  12.4360 13.2542   142.2     2.7  19.6
...
2025 07 12    16 07 08.9 -20 52 18  12.5024 13.2314   134.2     3.2  19.6
...
2025 07 27    16 04 38.5 -21 08 15  12.6609 13.1888   119.4     3.8  19.6

(MPEC 2025-M132、CBET 5575)

スレッド表示 | 新しいものから 前のトピック | 次のトピック | トップ

投稿するにはまず登録を
 
© 1999 Tsutomu Seki.